Burlington, NC

1:05 AM EST on February 23, 2017 (GMT -0500)
Burlington-Alamance Regional

Weather History for KBUY - January, 2013

Change the Weather History Date:

Wednesday, January 23, 2013

  Actual Average Record
Temperature  
Mean Temperature 28 °F -  
Max Temperature 41 °F 49 °F 60 °F (2017)
Min Temperature 16 °F 28 °F 23 °F (2016)
Degree Days  
Heating Degree Days 36    
Moisture  
Dew Point 11 °F    
Average Humidity 51    
Maximum Humidity 81    
Minimum Humidity 31    
Precipitation  
Precipitation 0.00 in - - ()
Sea Level Pressure  
Sea Level Pressure 30.25 in    
Wind  
Wind Speed 2 mph (SSW)    
Max Wind Speed 13 mph    
Max Gust Speed 23 mph    
Visibility 10 miles    
Events      
Averages and records for this station are not official NWS values.
T = Trace of Precipitation, MM = Missing Value Source: NWS Daily Summary

Daily Weather History Graph

Daily Weather History Graph

Search for Another Location

Airport or City:

Trip Planner

Search our weather history database for the weather conditions in past years. The results will help you decide how hot, cold, wet, or windy it might be!

Date:

Astronomy

Jan. 23, 2013 Rise Set
Actual Time 7:24 AM EST 5:35 PM EST
Civil Twilight 6:56 AM EST 6:03 PM EST
Nautical Twilight 6:25 AM EST 6:34 PM EST
Astronomical Twilight 5:55 AM EST 7:04 PM EST
Moon 2:46 PM EST 4:33 AM EST
Length of Visible Light 11h 06m
Length of Day
10h 11m
Waxing Gibbous, 89% of the Moon is Illuminated
Jan 23
Waxing Gibbous
Jan 26
Full
Feb 3
Last Quarter
Feb 10
New
Feb 17
First Quarter

Hourly Weather History & Observations

Time (EST) Temp. Windchill Dew Point Humidity Pressure Visibility Wind Dir Wind Speed Gust Speed Precip Events Conditions
12:54 AM 21.9 °F - 5.0 °F 48% 30.28 in 10.0 mi Calm Calm - N/A   Clear
1:54 AM 21.0 °F - 7.0 °F 55% 30.29 in 10.0 mi Calm Calm - N/A   Clear
2:54 AM 19.0 °F - 7.0 °F 59% 30.30 in 10.0 mi Calm Calm - N/A   Clear
3:54 AM 18.0 °F - 10.0 °F 71% 30.31 in 10.0 mi Calm Calm - N/A   Clear
4:54 AM 18.0 °F - 9.0 °F 68% 30.31 in 10.0 mi Calm Calm - N/A   Clear
5:54 AM 16.0 °F - 10.9 °F 81% 30.32 in 10.0 mi Calm Calm - N/A   Partly Cloudy
6:54 AM 17.1 °F - 9.0 °F 71% 30.34 in 10.0 mi Calm Calm - N/A   Clear
7:54 AM 17.1 °F - 12.0 °F 81% 30.34 in 10.0 mi Calm Calm - N/A   Clear
8:54 AM 24.1 °F - 10.0 °F 55% 30.36 in 10.0 mi Calm Calm - N/A   Clear
9:54 AM 27.0 °F - 6.1 °F 41% 30.37 in 10.0 mi Calm Calm - N/A   Clear
10:54 AM 30.0 °F 25.2 °F 5.0 °F 35% 30.36 in 10.0 mi Variable 4.6 mph - N/A   Clear
11:54 AM 35.1 °F 31.0 °F 7.0 °F 31% 30.32 in 10.0 mi Variable 4.6 mph - N/A   Clear
12:54 PM 37.9 °F 30.0 °F 10.0 °F 32% 30.26 in 10.0 mi SW 12.7 mph 23.0 mph N/A   Clear
1:54 PM 39.0 °F 32.3 °F 12.0 °F 33% 30.23 in 10.0 mi WSW 10.4 mph - N/A   Partly Cloudy
2:54 PM 41.0 °F 34.7 °F 14.0 °F 33% 30.21 in 10.0 mi SW 10.4 mph - N/A   Overcast
3:54 PM 41.0 °F 34.7 °F 14.0 °F 33% 30.19 in 10.0 mi SSW 10.4 mph 16.1 mph N/A   Clear
4:54 PM 39.0 °F 33.4 °F 14.0 °F 36% 30.19 in 10.0 mi SSW 8.1 mph - N/A   Clear
5:54 PM 37.0 °F 33.3 °F 14.0 °F 39% 30.18 in 10.0 mi South 4.6 mph - N/A   Clear
6:54 PM 34.0 °F - 12.9 °F 42% 30.17 in 10.0 mi Calm Calm - N/A   Clear
7:54 PM 28.9 °F - 17.1 °F 61% 30.14 in 10.0 mi Calm Calm - N/A   Clear
8:54 PM 28.9 °F - 16.0 °F 58% 30.13 in 10.0 mi Calm Calm - N/A   Clear
9:54 PM 28.9 °F - 15.1 °F 56% 30.11 in 10.0 mi Calm Calm - N/A   Clear
11:54 PM 32.0 °F 28.7 °F 15.1 °F 50% 30.04 in 10.0 mi South 3.5 mph - N/A   Clear